Location: Bishopstone
(51.0167°N, 1.9000°W)
Time: 09:08:12
(UTC+00:00)

Cosmos 2219 Rocket - Pass Details

Date: 16 September 2019
Orbit: 829 x 845 km, 71.0° (Epoch: 15 October)

Event Time Altitude Azimuth Distance (km) Brightness Sun altitude
Rises 20:49:44 0° 321° (NW) 3,383 6.7 -22.7°
Reaches altitude 10° 20:52:44 10° 305° (NW) 2,445 5.7 -23.0°
Maximum altitude 20:56:45 21° 259° (W) 1,806 4.3 -23.5°
Drops below altitude 10° 21:00:46 10° 213° (SSW) 2,436 4.5 -24.0°
Enters shadow 21:02:03 - 205° (SSW) 2,811 4.8 -24.2°
